Regional Weather Roundup
Issued by NWS

Home | Current Version | Previous Version | Graphics & Text | Print | Product List | Glossary On
Versions: 1 2 3 4 5 6 7 8 9 10 11 12 13 14 15 16 17 18 19 20 21 22 23 24 25 26 27 28 29 30 31 32 33 34 35 36 37 38 39 40 41 42 43 44 45 46 47 48 49 50
000
ASUS43 KTOP 180608
RWRKS

WEATHER ROUNDUP FOR KANSAS
NATIONAL WEATHER SERVICE GOODLAND KS
1200 AM CST MON DEC 18 2017

NOTE:  "FAIR" INDICATES FEW OR NO CLOUDS BELOW 12,000 FEET WITH NO
SIGNIFICANT WEATHER AND/OR OBSTRUCTIONS TO VISIBILITY.

KSZ001>006-013>018-027>032-041>047-180700-
NORTHWEST KANSAS

CITY           SKY/WX    TMP DP  RH WIND       PRES   REMARKS
GOODLAND       CLOUDY    28  23  81 SW12      29.98F WCI  18
6HR MIN TEMP:  21; 6HR MAX TEMP:  33;

HAYS           CLOUDY    20  17  88 SW3       30.04S
HILL CITY      CLEAR     21  20  96 SW5       30.02F
6HR MIN TEMP:  21; 6HR MAX TEMP:  36;

RUSSELL        CLOUDY    22  21  96 S7        30.02S
6HR MIN TEMP:  22; 6HR MAX TEMP:  39;

$$

KSZ061>065-074>080-084>089-180700-
SOUTHWEST KANSAS

CITY           SKY/WX    TMP DP  RH WIND       PRES   REMARKS
DODGE CITY     CLOUDY    26  22  84 SW5       30.05S
6HR MIN TEMP:  23; 6HR MAX TEMP:  34;

ELKHART        CLOUDY    30  27  91 SW9       30.03S
GARDEN CITY    CLOUDY    22  19  89 NW6       30.04F
6HR MIN TEMP:  21; 6HR MAX TEMP:  37;

GREAT BEND     CLOUDY    25  22  88 W6        30.05S
LIBERAL        CLEAR     22  18  85 W5        30.06R
PRATT          CLOUDY    24  20  86 SW3       30.07S
6HR MIN TEMP:  23; 6HR MAX TEMP:  42;

$$

KSZ066>073-081>083-090>101-180700-
SOUTHEAST KANSAS

CITY           SKY/WX    TMP DP  RH WIND       PRES   REMARKS
CHANUTE        CLOUDY    45  43  93 SW9       30.08R
6HR MIN TEMP:  45; 6HR MAX TEMP:  46;

COFFEYVILLE    CLOUDY    45  44  97 SW6       30.09S
6HR MIN TEMP:  44; 6HR MAX TEMP:  46; 6HR PCP: TRACE;

HUTCHINSON     CLOUDY    30  27  88 NW7       30.05R
6HR MIN TEMP:  29; 6HR MAX TEMP:  42;

MEDICINE LODGE   N/A     30  28  92 N7        30.06F
NEWTON         CLEAR     34  33  96 SW7       30.05S
PARSONS        CLOUDY    44  44 100 SW5       30.09R
6HR MIN TEMP:  44; 6HR MAX TEMP:  46;

WICHITA INTL   CLEAR     33  33 100 W5        30.07R
6HR MIN TEMP:  33; 6HR MAX TEMP:  44;

WICHITA JABRA  CLEAR     39  38  96 SW7       30.06R
6HR MIN TEMP:  38; 6HR MAX TEMP:  45;

WICHITA MCCONL CLEAR     36  33  92 SW6       30.06R
WINFIELD       CLOUDY    44  43  96 SW6       30.08S
6HR MIN TEMP:  44; 6HR MAX TEMP:  46;

$$

KSZ007>012-019>026-033>040-048>060-102>105-180700-
NORTHEAST KANSAS

CITY           SKY/WX    TMP DP  RH WIND       PRES   REMARKS
CONCORDIA      CLOUDY    30  27  88 W5        30.02S
6HR MIN TEMP:  29; 6HR MAX TEMP:  39;

EMPORIA        CLOUDY    44  39  82 SW7       30.04S
6HR MIN TEMP:  41; 6HR MAX TEMP:  45;

LAWRENCE       CLOUDY    45  42  89 SW3       30.04R
6HR MIN TEMP:  43; 6HR MAX TEMP:  48;

MANHATTAN      CLOUDY    41  35  79 NW3       30.03F
6HR MIN TEMP:  41; 6HR MAX TEMP:  48;

MARYSVILLE     CLEAR     32  32 100 SW3       30.02S FOG
OLATHE IND     CLOUDY    43  42  97 SW9       30.04F
6HR MIN TEMP:  37; 6HR MAX TEMP:  45;

OLATHE EXE     CLOUDY    41  41 100 SW5       30.03F
6HR MIN TEMP:  39; 6HR MAX TEMP:  44;

SALINA         CLEAR     33  28  81 W3        30.04S
6HR MIN TEMP:  32; 6HR MAX TEMP:  42;

TOPEKA BILLARD CLOUDY    46  41  82 SW8       30.03S
6HR MIN TEMP:  46; 6HR MAX TEMP:  49;

TOPEKA FORBES  CLOUDY    46  41  82 SW9       30.03S
6HR MIN TEMP:  44; 6HR MAX TEMP:  49;

$$



USA.gov is the U.S. government's official web portal to all federal, state and local government web resources and services.